Radiation Dose at Monitoring Post of Fukushima Daini Nuclear Power Station
Date,Time,MP-1(microSv/h),MP-2(microSv/h),MP-3(microSv/h),MP-4(microSv/h),MP-5(microSv/h),MP-6(microSv/h),MP-7(microSv/h),Wind Direction,Wind Velocity(m/s),Rain
2017/11/29,00:00,0.336,0.212,0.351,0.330,0.312,0.174,0.102,south-southwest,3.4,No
2017/11/29,00:10,0.336,0.213,0.353,0.331,0.313,0.174,0.103,south-southwest,3.2,No
2017/11/29,00:20,0.336,0.213,0.354,0.331,0.313,0.174,0.103,southwest,3.7,No
2017/11/29,00:30,0.336,0.213,0.352,0.331,0.312,0.174,0.103,southwest,2.9,No
2017/11/29,00:40,0.336,0.213,0.352,0.331,0.313,0.173,0.103,southwest,0.7,No
2017/11/29,00:50,0.336,0.213,0.353,0.331,0.312,0.174,0.103,-,CALM,No
2017/11/29,01:00,0.337,0.213,0.354,0.331,0.311,0.173,0.103,-,CALM,No
2017/11/29,01:10,0.336,0.213,0.351,0.331,0.313,0.173,0.103,-,CALM,No
2017/11/29,01:20,0.336,0.214,0.353,0.331,0.314,0.174,0.103,-,CALM,No
2017/11/29,01:30,0.338,0.214,0.353,0.331,0.311,0.173,0.103,southeast,0.8,No
2017/11/29,01:40,0.336,0.213,0.353,0.332,0.313,0.174,0.103,east,1.2,No
2017/11/29,01:50,0.336,0.214,0.353,0.332,0.315,0.173,0.102,east-southeast,1.3,No
2017/11/29,02:00,0.337,0.213,0.353,0.332,0.314,0.174,0.104,east-northeast,1.8,No
2017/11/29,02:10,0.338,0.213,0.354,0.332,0.311,0.174,0.104,northeast,1.6,No
2017/11/29,02:20,0.336,0.212,0.353,0.332,0.314,0.173,0.103,north-northeast,2.6,No
2017/11/29,02:30,0.337,0.214,0.353,0.332,0.313,0.174,0.104,north-northeast,1.9,No
2017/11/29,02:40,0.338,0.213,0.353,0.330,0.312,0.174,0.104,north-northeast,1.8,No
2017/11/29,02:50,0.338,0.213,0.354,0.332,0.314,0.174,0.105,-,CALM,No
2017/11/29,03:00,0.337,0.213,0.352,0.333,0.314,0.174,0.103,-,CALM,No
2017/11/29,03:10,0.337,0.213,0.353,0.331,0.313,0.173,0.104,north-northeast,1.1,No
2017/11/29,03:20,0.337,0.213,0.353,0.332,0.312,0.174,0.104,-,CALM,No
2017/11/29,03:30,0.336,0.213,0.353,0.331,0.313,0.174,0.103,south-southeast,0.8,No
2017/11/29,03:40,0.337,0.213,0.353,0.330,0.312,0.174,0.103,south,1.0,No
2017/11/29,03:50,0.336,0.212,0.352,0.331,0.313,0.173,0.104,south-southwest,1.5,No
2017/11/29,04:00,0.338,0.212,0.353,0.331,0.314,0.173,0.104,southwest,0.7,No
2017/11/29,04:10,0.336,0.212,0.352,0.331,0.312,0.172,0.104,south-southwest,0.6,No
2017/11/29,04:20,0.337,0.212,0.352,0.332,0.312,0.174,0.103,-,CALM,No
2017/11/29,04:30,0.337,0.212,0.354,0.330,0.313,0.172,0.103,north-northeast,0.8,No
2017/11/29,04:40,0.336,0.213,0.352,0.331,0.312,0.172,0.104,-,CALM,No
2017/11/29,04:50,0.337,0.213,0.351,0.330,0.311,0.173,0.103,northeast,0.7,No
2017/11/29,05:00,0.336,0.213,0.351,0.330,0.312,0.174,0.104,southwest,0.8,No
2017/11/29,05:10,0.335,0.212,0.353,0.331,0.312,0.174,0.103,southwest,1.9,No
2017/11/29,05:20,0.336,0.212,0.352,0.330,0.311,0.173,0.102,southwest,1.9,No
2017/11/29,05:30,0.336,0.213,0.352,0.330,0.313,0.172,0.103,-,CALM,No
2017/11/29,05:40,0.335,0.213,0.353,0.332,0.312,0.174,0.102,east-northeast,1.2,No
2017/11/29,05:50,0.337,0.212,0.351,0.331,0.312,0.173,0.104,east,1.3,No
2017/11/29,06:00,0.336,0.213,0.351,0.331,0.313,0.173,0.103,east-southeast,1.2,No
2017/11/29,06:10,0.337,0.212,0.352,0.332,0.313,0.173,0.103,east-southeast,0.9,No
2017/11/29,06:20,0.337,0.213,0.354,0.331,0.313,0.173,0.104,south-southeast,1.7,No
2017/11/29,06:30,0.337,0.213,0.352,0.330,0.314,0.174,0.102,south-southwest,3.0,No
2017/11/29,06:40,0.336,0.214,0.351,0.331,0.314,0.172,0.104,south-southwest,2.5,No
2017/11/29,06:50,0.337,0.214,0.351,0.331,0.313,0.173,0.103,south-southwest,2.6,No
2017/11/29,07:00,0.337,0.213,0.351,0.331,0.312,0.173,0.103,south,4.1,No
2017/11/29,07:10,0.337,0.214,0.352,0.329,0.313,0.173,0.103,south-southwest,3.8,No
2017/11/29,07:20,0.335,0.213,0.353,0.330,0.312,0.174,0.103,south-southwest,1.2,No
2017/11/29,07:30,0.335,0.214,0.354,0.331,0.311,0.175,0.103,south,0.8,No
2017/11/29,07:40,0.337,0.213,0.352,0.331,0.314,0.174,0.104,south,1.7,No
2017/11/29,07:50,0.336,0.212,0.351,0.329,0.312,0.174,0.103,south-southeast,1.4,No
2017/11/29,08:00,0.336,0.214,0.352,0.330,0.312,0.173,0.103,east-southeast,2.2,No
2017/11/29,08:10,0.338,0.213,0.351,0.330,0.313,0.173,0.104,south-southeast,3.2,No
2017/11/29,08:20,0.335,0.213,0.351,0.331,0.314,0.173,0.103,south,3.7,No
2017/11/29,08:30,0.337,0.213,0.351,0.329,0.313,0.172,0.103,south-southwest,3.3,No
2017/11/29,08:40,0.337,0.212,0.351,0.330,0.313,0.171,0.103,south-southwest,3.6,No
2017/11/29,08:50,0.336,0.213,0.351,0.330,0.313,0.173,0.103,south,3.9,No
2017/11/29,09:00,0.336,0.213,0.353,0.328,0.314,0.172,0.103,south,4.2,No
2017/11/29,09:10,0.338,0.212,0.354,0.330,0.313,0.172,0.104,south,4.3,No
2017/11/29,09:20,0.336,0.213,0.350,0.330,0.314,0.174,0.103,south-southwest,6.2,No
2017/11/29,09:30,0.335,0.213,0.352,0.333,0.315,0.172,0.103,south-southwest,5.5,No
2017/11/29,09:40,0.337,0.213,0.352,0.329,0.312,0.173,0.103,south-southwest,4.5,No
2017/11/29,09:50,0.336,0.213,0.350,0.332,0.315,0.173,0.103,south,4.2,No
2017/11/29,10:00,0.336,0.211,0.353,0.328,0.312,0.173,0.103,south,5.2,No
2017/11/29,10:10,0.335,0.213,0.350,0.332,0.313,0.173,0.102,south-southwest,5.2,No
2017/11/29,10:20,0.335,0.213,0.353,0.327,0.310,0.172,0.104,south-southwest,6.4,No
2017/11/29,10:30,0.334,0.211,0.351,0.331,0.311,0.174,0.102,south,7.9,No
2017/11/29,10:40,0.336,0.213,0.350,0.328,0.313,0.172,0.103,south-southwest,7.0,No
2017/11/29,10:50,0.334,0.212,0.352,0.332,0.310,0.173,0.102,south-southwest,6.3,No
2017/11/29,11:00,0.337,0.212,0.351,0.330,0.313,0.173,0.102,south-southwest,6.0,No
2017/11/29,11:10,0.333,0.211,0.351,0.329,0.310,0.172,0.102,south,5.5,No
2017/11/29,11:20,0.337,0.213,0.351,0.330,0.311,0.173,0.102,south,6.6,No
2017/11/29,11:30,0.335,0.213,0.352,0.329,0.312,0.172,0.102,south,7.0,No
2017/11/29,11:40,0.337,0.213,0.349,0.331,0.312,0.173,0.102,south,6.6,No
2017/11/29,11:50,0.334,0.212,0.352,0.331,0.314,0.173,0.102,south,5.2,No
2017/11/29,12:00,0.337,0.213,0.350,0.332,0.313,0.173,0.103,south,4.8,No
2017/11/29,12:10,0.334,0.213,0.353,0.330,0.314,0.173,0.102,south,4.2,No
2017/11/29,12:20,0.338,0.213,0.351,0.332,0.311,0.174,0.103,south,4.3,No
2017/11/29,12:30,0.334,0.213,0.349,0.329,0.313,0.173,0.102,south-southwest,3.6,No
2017/11/29,12:40,0.337,0.213,0.350,0.330,0.312,0.173,0.102,west-southwest,1.8,No
2017/11/29,12:50,0.333,0.212,0.352,0.329,0.314,0.172,0.102,west,0.7,No
2017/11/29,13:00,0.338,0.213,0.352,0.332,0.314,0.173,0.103,west-southwest,2.5,No
2017/11/29,13:10,0.335,0.212,0.353,0.330,0.316,0.173,0.103,west-northwest,6.2,No
2017/11/29,13:20,0.337,0.213,0.352,0.331,0.315,0.174,0.102,west,4.2,No
2017/11/29,13:30,0.334,0.213,0.350,0.332,0.312,0.172,0.102,west,3.3,No
2017/11/29,13:40,0.336,0.214,0.352,0.328,0.314,0.173,0.103,west,5.3,No
2017/11/29,13:50,0.335,0.211,0.350,0.332,0.312,0.174,0.102,northwest,1.6,No
2017/11/29,14:00,0.335,0.210,0.350,0.331,0.309,0.173,0.102,northwest,6.5,No
2017/11/29,14:10,0.337,0.213,0.351,0.327,0.310,0.172,0.103,west-northwest,5.2,No
2017/11/29,14:20,0.335,0.212,0.350,0.328,0.313,0.172,0.101,northwest,5.3,No
2017/11/29,14:30,0.337,0.212,0.353,0.330,0.312,0.174,0.102,north-northwest,6.4,No
2017/11/29,14:40,0.336,0.214,0.350,0.328,0.311,0.173,0.102,west-northwest,6.0,No
2017/11/29,14:50,0.336,0.211,0.353,0.330,0.316,0.173,0.102,northwest,6.4,No
2017/11/29,15:00,0.335,0.214,0.352,0.330,0.313,0.173,0.102,west-northwest,6.8,No
2017/11/29,15:10,0.337,0.211,0.354,0.330,0.317,0.172,0.103,west-northwest,8.7,No
2017/11/29,15:20,0.337,0.213,0.351,0.332,0.313,0.172,0.102,west-northwest,5.9,No
2017/11/29,15:30,0.337,0.212,0.354,0.331,0.316,0.174,0.103,northwest,6.3,No
2017/11/29,15:40,0.336,0.214,0.352,0.332,0.313,0.172,0.103,west-northwest,9.6,No
2017/11/29,15:50,0.337,0.214,0.354,0.332,0.315,0.174,0.101,northwest,8.8,No
2017/11/29,16:00,0.335,0.213,0.351,0.331,0.314,0.172,0.102,west,7.3,No
2017/11/29,16:10,0.338,0.213,0.353,0.332,0.315,0.173,0.104,northwest,5.7,No
2017/11/29,16:20,0.336,0.214,0.354,0.330,0.315,0.173,0.103,northwest,4.6,No
2017/11/29,16:30,0.338,0.214,0.351,0.333,0.313,0.173,0.103,west-northwest,5.9,No
2017/11/29,16:40,0.337,0.213,0.353,0.331,0.316,0.173,0.102,west-northwest,5.0,No
2017/11/29,16:50,0.337,0.213,0.353,0.332,0.314,0.174,0.103,west-northwest,4.8,No
2017/11/29,17:00,0.337,0.214,0.353,0.331,0.316,0.173,0.103,west-northwest,4.8,No
2017/11/29,17:10,0.336,0.214,0.353,0.331,0.313,0.173,0.104,northwest,4.1,No
2017/11/29,17:20,0.337,0.213,0.352,0.332,0.314,0.172,0.103,northwest,4.3,No
2017/11/29,17:30,0.336,0.214,0.353,0.331,0.314,0.172,0.103,northwest,3.8,No
2017/11/29,17:40,0.338,0.213,0.353,0.332,0.314,0.173,0.102,northwest,5.5,No
2017/11/29,17:50,0.338,0.214,0.352,0.333,0.315,0.174,0.102,north-northwest,8.1,No
2017/11/29,18:00,0.336,0.214,0.353,0.331,0.314,0.173,0.103,northwest,9.5,No
2017/11/29,18:10,0.339,0.213,0.352,0.331,0.314,0.173,0.102,northwest,9.0,No
2017/11/29,18:20,0.336,0.214,0.353,0.331,0.313,0.173,0.103,northwest,8.4,No
2017/11/29,18:30,0.336,0.212,0.352,0.332,0.312,0.174,0.103,northwest,10.7,No
2017/11/29,18:40,0.335,0.212,0.353,0.331,0.314,0.173,0.103,west-northwest,13.7,No
2017/11/29,18:50,0.334,0.211,0.353,0.330,0.313,0.174,0.103,west-northwest,14.0,No
2017/11/29,19:00,0.338,0.213,0.351,0.332,0.312,0.173,0.103,west-northwest,14.2,No
2017/11/29,19:10,0.335,0.214,0.353,0.331,0.313,0.172,0.103,northwest,8.1,No
2017/11/29,19:20,0.338,0.212,0.353,0.331,0.315,0.174,0.103,west-northwest,5.9,No
2017/11/29,19:30,0.337,0.213,0.353,0.333,0.315,0.174,0.102,west-northwest,7.5,No
2017/11/29,19:40,0.337,0.214,0.355,0.330,0.316,0.173,0.103,west,7.3,No
2017/11/29,19:50,0.338,0.213,0.353,0.332,0.314,0.173,0.103,west,8.6,No
2017/11/29,20:00,0.336,0.214,0.354,0.331,0.315,0.174,0.102,northwest,8.1,No
2017/11/29,20:10,0.337,0.214,0.352,0.331,0.315,0.173,0.103,northwest,5.2,No
2017/11/29,20:20,0.336,0.213,0.353,0.332,0.316,0.173,0.103,northwest,5.9,No
2017/11/29,20:30,0.337,0.215,0.354,0.333,0.316,0.172,0.103,west,3.9,No
2017/11/29,20:40,0.337,0.214,0.352,0.333,0.315,0.173,0.102,west-northwest,2.7,No
2017/11/29,20:50,0.336,0.213,0.354,0.332,0.316,0.173,0.103,north-northwest,3.7,No
2017/11/29,21:00,0.338,0.214,0.352,0.332,0.314,0.174,0.103,northwest,3.9,No
2017/11/29,21:10,0.337,0.213,0.353,0.332,0.315,0.173,0.101,northwest,3.7,No
2017/11/29,21:20,0.338,0.214,0.353,0.333,0.315,0.173,0.102,north,3.9,No
2017/11/29,21:30,0.338,0.214,0.351,0.332,0.312,0.174,0.104,northwest,2.6,No
2017/11/29,21:40,0.336,0.214,0.354,0.333,0.315,0.174,0.102,northwest,6.5,No
2017/11/29,21:50,0.338,0.213,0.352,0.331,0.313,0.174,0.104,northwest,9.2,No
2017/11/29,22:00,0.336,0.214,0.354,0.333,0.314,0.174,0.104,north-northwest,10.3,No
2017/11/29,22:10,0.339,0.214,0.353,0.332,0.315,0.172,0.104,north-northwest,10.4,No
2017/11/29,22:20,0.338,0.213,0.352,0.331,0.313,0.174,0.103,north-northwest,11.8,No
2017/11/29,22:30,0.338,0.214,0.354,0.333,0.314,0.173,0.103,north-northwest,10.0,No
2017/11/29,22:40,0.339,0.214,0.354,0.332,0.313,0.174,0.103,north,7.6,No
2017/11/29,22:50,0.338,0.214,0.353,0.332,0.314,0.174,0.103,north,6.2,No
2017/11/29,23:00,0.336,0.214,0.355,0.333,0.317,0.174,0.104,north,7.6,No
2017/11/29,23:10,0.339,0.214,0.354,0.332,0.314,0.174,0.103,north,6.8,No
2017/11/29,23:20,0.337,0.214,0.354,0.332,0.317,0.175,0.103,north,4.6,No
2017/11/29,23:30,0.337,0.213,0.354,0.333,0.316,0.173,0.102,north,4.8,No
2017/11/29,23:40,0.339,0.213,0.353,0.332,0.315,0.175,0.103,north-northwest,4.4,No
2017/11/29,23:50,0.336,0.214,0.355,0.333,0.315,0.174,0.103,north,5.6,No
